Cape Girardeau, MO

5:09 AM CST on December 15, 2019 (GMT -0600)
Cape Girardeau Regional

Weather History for KCGI - October, 2019

Change the Weather History Date:

Thursday, October 10, 2019

  Actual Average Record
Temperature  
Mean Temperature 72 °F 60 °F  
Max Temperature 85 °F 72 °F 88 °F (1980)
Min Temperature 58 °F 47 °F 26 °F (2000)
Degree Days  
Heating Degree Days 0 7  
Month to date heating degree days 16 58  
Since 1 July heating degree days 16 107  
Cooling Degree Days 7 1  
Month to date cooling degree days 51 17  
Year to date cooling degree days 1775 1439  
Growing Degree Days 20 (Base 50)    
Moisture  
Dew Point 62 °F    
Average Humidity 72    
Maximum Humidity 93    
Minimum Humidity 51    
Precipitation  
Precipitation T in 0.11 in 0.82 in (2014)
Month to date precipitation 1.18 1.16  
Year to date precipitation 48.85 35.49  
Sea Level Pressure  
Sea Level Pressure 29.96 in    
Wind  
Wind Speed 10 mph (SSE)    
Max Wind Speed 20 mph    
Max Gust Speed 30 mph    
Visibility 10 miles    
Events Rain    
T = Trace of Precipitation, MM = Missing Value Source: NWS Daily Summary

Daily Weather History Graph

Daily Weather History Graph

Search for Another Location

Airport or City:

Astronomy

Oct. 10, 2019 Rise Set
Actual Time 7:01 AM CDT 6:28 PM CDT
Civil Twilight 6:35 AM CDT 6:54 PM CDT
Nautical Twilight 6:05 AM CDT 7:24 PM CDT
Astronomical Twilight 5:34 AM CDT 7:54 PM CDT
Moon 5:24 PM CDT (10/10) 3:51 AM CDT (10/10)
Length of Visible Light 12h 19m
Length of Day
11h 27m
Waxing Gibbous, 91% of the Moon is Illuminated
Oct 10
Waxing Gibbous
Oct 13
Full
Oct 21
Last Quarter
Oct 27
New
Nov 4
First Quarter

Hourly Weather History & Observations

Time (CDT) Temp. Heat Index Dew Point Humidity Pressure Visibility Wind Dir Wind Speed Gust Speed Precip Events Conditions
12:53 AM 62.1 °F - 57.0 °F 84% 29.99 in 10.0 mi SSE 8.1 mph - N/A   Clear
1:53 AM 57.9 °F - 55.0 °F 90% 30.01 in 10.0 mi Calm Calm - N/A   Clear
2:53 AM 57.9 °F - 55.9 °F 93% 30.01 in 10.0 mi ESE 4.6 mph - N/A   Scattered Clouds
3:53 AM 62.1 °F - 57.0 °F 84% 29.99 in 10.0 mi ENE 3.5 mph - N/A   Mostly Cloudy
4:53 AM 60.1 °F - 55.9 °F 86% 29.99 in 10.0 mi ESE 4.6 mph - N/A   Mostly Cloudy
5:53 AM 61.0 °F - 55.9 °F 83% 29.99 in 10.0 mi SE 5.8 mph - N/A   Partly Cloudy
6:53 AM 63.0 °F - 57.9 °F 84% 29.98 in 10.0 mi SE 8.1 mph - N/A   Scattered Clouds
7:53 AM 64.9 °F - 60.1 °F 84% 29.99 in 10.0 mi SSE 12.7 mph - N/A   Partly Cloudy
8:53 AM 69.1 °F - 63.0 °F 81% 30.01 in 10.0 mi South 16.1 mph 24.2 mph N/A   Clear
9:53 AM 73.0 °F - 64.0 °F 73% 30.00 in 10.0 mi South 15.0 mph 24.2 mph N/A   Clear
10:53 AM 78.1 °F - 64.9 °F 64% 30.00 in 10.0 mi South 13.8 mph 19.6 mph N/A   Clear
11:53 AM 82.9 °F 84.6 °F 64.9 °F 54% 29.99 in 9.0 mi SSW 10.4 mph 21.9 mph N/A   Partly Cloudy
12:53 PM 84.0 °F 85.4 °F 64.0 °F 51% 29.96 in 10.0 mi SSW 11.5 mph 21.9 mph N/A   Partly Cloudy
1:53 PM 84.0 °F 85.4 °F 64.0 °F 51% 29.92 in 10.0 mi SSW 9.2 mph - N/A   Scattered Clouds
2:53 PM 84.0 °F 84.9 °F 63.0 °F 49% 29.91 in 10.0 mi South 11.5 mph 26.5 mph 0.00 in Rain Light Rain
3:53 PM 82.9 °F 84.4 °F 64.0 °F 53% 29.90 in 10.0 mi South 15.0 mph - 0.00 in   Scattered Clouds
4:53 PM 82.0 °F 83.1 °F 63.0 °F 52% 29.90 in 10.0 mi South 9.2 mph - N/A   Partly Cloudy
5:53 PM 80.1 °F 81.7 °F 64.0 °F 58% 29.90 in 10.0 mi South 8.1 mph - N/A   Clear
6:53 PM 77.0 °F - 63.0 °F 62% 29.91 in 10.0 mi SSE 6.9 mph - N/A   Clear
7:53 PM 75.0 °F - 64.9 °F 71% 29.90 in 10.0 mi SE 8.1 mph - N/A   Clear
8:53 PM 75.9 °F - 66.0 °F 71% 29.92 in 10.0 mi SSE 15.0 mph 23.0 mph N/A   Mostly Cloudy
9:53 PM 75.9 °F - 66.9 °F 74% 29.93 in 10.0 mi SSE 10.4 mph - N/A   Clear
10:53 PM 75.0 °F - 66.9 °F 76% 29.92 in 10.0 mi SSE 11.5 mph - N/A   Clear
11:53 PM 75.0 °F - 66.0 °F 73% 29.92 in 10.0 mi South 11.5 mph - N/A   Mostly Cloudy